Regional Weather Roundup
Issued by NWS Midland/Odessa, TX

Skip options and go directly to product.
Home | Oldest Version | Previous Version | Current Version | All | Text Only | Save Text | Print | Product List | Glossary Off

Skip product version selection by date and time.   

224
ASUS44 KMAF 281810
RWRMAF
MIDLAND AREA WEATHER ROUNDUP
NATIONAL WEATHER SERVICE MIDLAND TX
100 PM CDT THU JUL 28 2016

...IN SOUTHWEST TEXAS AND SOUTHEAST NEW MEXICO...

CITY           SKY/WX    TMP DP  RH WIND       PRES   REMARKS
ALPINE         MOSUNNY   85  54  34 NE12G21   30.20F
ANDREWS        FAIR      90  62  39 E6        30.10F
ARTESIA        SUNNY     90  61  37 E7G13     30.12F
BIG SPRING     SUNNY     89  65  44 SE5       30.09F
CARLSBAD       SUNNY     89  61  38 VRB5      30.08F
DRYDEN           N/A     89  68  49 E14       30.02F
FORT STOCKTON  SUNNY     88  64  44 SE8       30.08F
GUAD PASS      MOSUNNY   79  57  46 E21G26    30.24F
HOBBS          PTSUNNY   88  55  33 NE9       30.13F
MARFA          MOSUNNY   85  57  38 NE16G25   30.18F
MIDLAND AIRPK  SUNNY     89  64  42 S7        30.09F
MIDLAND INTL   SUNNY     89  64  43 VRB6      30.09F
ODESSA         MOSUNNY   88  64  44 SE12      30.10F
PECOS          SUNNY     92  64  39 E8G20     30.06F
PRESIDIO       FAIR      93  60  33 E16G25    30.02F
SEMINOLE       SUNNY     91  58  33 SE3       30.11F
SNYDER           N/A     89  67  46 S5        30.06F
WINK           SUNNY     91  64  40 NE9       30.06F
$$
...OTHER STATIONS IN TEXAS...

CITY           SKY/WX    TMP DP  RH WIND       PRES   REMARKS
ABILENE        MOSUNNY   91  67  44 VRB5      30.04F
AMARILLO       SUNNY     87  58  37 VRB5      30.13F
AUSTIN         MOSUNNY   91  73  55 SW9       29.99F
BROWNSVILLE    PTSUNNY   93  74  53 SE16G28   29.97R HX 103
CORPUS CHRISTI PTSUNNY   94  76  55 SE18      29.96F HX 106
DALLAS FTW     MOSUNNY   93  71  48 S9        29.96F HX 100
DEL RIO        PTSUNNY   89  71  55 VRB5      29.97F
EL PASO        MOSUNNY   92  55  28 E6        30.11F
HOUSTON INT    TSTM      76  73  91 SW5G17    30.05R FOG
LUBBOCK        MOSUNNY   90  59  35 VRB5      30.11F
SAN ANGELO     MOSUNNY   89  65  44 S3        30.04F
SAN ANTONIO    PTSUNNY   89  71  55 SE7       30.01F
WACO           MOSUNNY   92  70  48 VRB7      29.99F
WICHITA FALLS  NOT AVBL
$$
...OTHER LOCATIONS IN NEW MEXICO...

CITY           SKY/WX    TMP DP  RH WIND       PRES   REMARKS
ALAMAGORDO     NOT AVBL
ALBUQUERQUE    MOSUNNY   86  50  28 CALM      30.23F
CANNON AFB     NOT AVBL
CLOVIS         SUNNY     84  57  39 NE5       30.19F
HOLLOMAN AFB   NOT AVBL
ROSWELL        SUNNY     89  59  36 E3        30.13F
RUIDOSO          N/A     79  50  36 SE20G25   30.38S
SANTA FE       SUNNY     88  46  23 SW8G16    30.29F
TRUTH OR CONSE SUNNY     88  55  32 CALM      30.19S
TUCUMCARI      SUNNY     86  55  34 SE9       30.16F
$$

USA.gov is the U.S. government's official web portal to all federal, state and local government web resources and services.